CW0736 Weather Reports


Display with metric or nautical units.
time (UTC)temp
F
wind
direction
speed
MPH
gust
MPH
rain 1hr
in
rain 24hr
in
rain mn
in
humidity
%
barometer
mb
20260507014553 42 265 0.0 0.0 0.00 1.09 0.94 94 1014.0
20260507013015 42 265 0.0 0.0 0.00 1.09 0.94 94 1013.6
20260507011509 42 265 0.0 1.0 0.00 1.09 0.94 94 1013.8
20260507010014 42 265 0.0 2.0 0.00 1.14 0.94 94 1013.7
20260507004510 42 19 0.0 1.0 0.00 1.14 0.94 93 1013.5
20260507003036 42 24 0.0 0.0 0.00 1.14 0.94 93 1013.7
20260507001532 42 24 0.0 1.0 0.00 1.14 0.94 93 1013.5
20260507000020 42 24 0.0 2.0 0.02 1.21 0.94 92 1013.2
20260506234550 42 16 1.0 4.0 0.05 1.21 0.94 92 1013.2
20260506233112 43 344 2.0 9.0 0.09 1.21 0.94 91 1012.8
20260506233001 43 323 1.0 4.0 0.09 1.21 0.94 91 1012.9
20260506231524 44 335 1.0 4.0 0.11 1.21 0.94 91 1012.9
20260506230043 45 355 1.0 5.0 0.11 1.23 0.92 90 1012.7
20260506224556 47 355 2.0 7.0 0.09 1.20 0.89 89 1012.2
20260506223051 48 15 0.0 1.0 0.05 1.15 0.85 89 1011.6
20260506221557 48 15 0.0 1.0 0.02 1.12 0.83 88 1011.4
20260506220048 49 15 0.0 0.0 0.01 1.12 0.81 87 1011.3
20260506214520 49 15 0.0 3.0 0.00 1.12 0.80 85 1011.2
20260506213021 49 355 0.0 3.0 0.00 1.12 0.80 84 1011.0
20260506211528 49 188 0.0 2.0 0.00 1.12 0.80 85 1010.9
20260506210028 49 207 0.0 1.0 0.00 1.12 0.80 85 1011.0
20260506204540 49 207 0.0 2.0 0.00 1.12 0.80 85 1011.0
20260506203033 49 207 0.0 1.0 0.00 1.12 0.80 85 1011.1
20260506201550 49 220 0.0 1.0 0.00 1.12 0.80 85 1011.3
20260506200052 49 232 0.0 1.0 0.00 1.12 0.80 86 1011.2
20260506194548 49 254 0.0 2.0 0.00 1.12 0.80 88 1011.2
20260506193031 48 164 1.0 2.0 0.00 1.12 0.80 90 1011.0
20260506191527 47 181 0.0 1.0 0.00 1.12 0.80 91 1011.1
20260506190011 47 182 1.0 3.0 0.00 1.12 0.80 92 1011.2
20260506184509 46 117 0.0 2.0 0.00 1.12 0.80 93 1011.4
20260506183015 46 82 0.0 2.0 0.00 1.12 0.80 94 1011.4
20260506181537 45 10 0.0 4.0 0.00 1.12 0.80 94 1011.3
20260506180026 45 27 0.0 3.0 0.00 1.12 0.80 95 1011.5
20260506174527 45 36 0.0 4.0 0.00 1.12 0.80 94 1011.5
20260506173029 45 42 0.0 2.0 0.00 1.12 0.80 95 1011.4
20260506171524 45 355 1.0 4.0 0.00 1.12 0.80 95 1011.2
20260506170039 45 26 2.0 4.0 0.00 1.12 0.80 96 1010.9
20260506164612 44 27 3.0 6.0 0.00 1.12 0.80 96 1011.0
20260506163024 44 346 1.0 5.0 0.00 1.12 0.80 96 1010.9
20260506161505 44 76 1.0 4.0 0.00 1.12 0.80 96 1011.1
20260506160018 43 42 1.0 3.0 0.01 1.12 0.80 96 1011.0
20260506154537 43 57 2.0 5.0 0.01 1.12 0.80 96 1010.9
20260506153015 43 147 1.0 3.0 0.01 1.12 0.80 96 1011.1
20260506151515 43 61 0.0 3.0 0.01 1.12 0.80 96 1010.7
20260506150018 43 19 0.0 5.0 0.00 1.11 0.80 95 1010.7
20260506144508 43 43 1.0 4.0 0.00 1.11 0.79 96 1010.7
20260506143059 43 46 1.0 4.0 0.00 1.11 0.79 95 1010.6
20260506143001 43 53 2.0 4.0 0.00 1.11 0.79 96 1010.6
20260506141510 43 17 1.0 3.0 0.01 1.11 0.79 95 1010.3
20260506140021 43 59 0.0 4.0 0.03 1.11 0.79 96 1010.3
20260506134514 43 5 0.0 2.0 0.03 1.11 0.79 96 1010.2
20260506133007 43 114 1.0 5.0 0.04 1.11 0.79 96 1010.2
20260506131504 42 144 0.0 3.0 0.04 1.10 0.78 96 1010.0
20260506130003 42 144 0.0 4.0 0.04 1.08 0.76 95 1010.0
20260506124542 42 248 1.0 3.0 0.06 1.08 0.76 95 1009.8
20260506123036 42 189 1.0 3.0 0.06 1.07 0.75 95 1009.7
20260506121600 42 35 1.0 4.0 0.06 1.06 0.74 95 1009.6
20260506120106 43 294 0.0 3.0 0.05 1.04 0.72 95 1009.9
20260506114558 43 148 1.0 3.0 0.04 1.02 0.70 95 1009.7
20260506114502 43 146 1.0 3.0 0.04 1.02 0.70 95 1009.7
20260506113051 43 198 0.0 3.0 0.05 1.01 0.69 95 1009.9
20260506111516 43 173 0.0 6.0 0.05 1.00 0.68 95 1009.7
20260506110030 43 79 0.0 4.0 0.06 0.99 0.67 95 1009.5
20260506104557 43 119 1.0 4.0 0.08 0.98 0.66 95 1009.3
20260506103046 43 46 0.0 3.0 0.08 0.96 0.64 95 1009.5
20260506101503 43 15 0.0 5.0 0.09 0.95 0.63 95 1009.7
20260506100008 43 21 1.0 5.0 0.07 0.92 0.60 95 1009.8
20260506094525 43 48 1.0 3.0 0.06 0.90 0.57 95 1009.8
20260506093100 43 10 0.0 3.0 0.06 0.88 0.56 95 1009.9
20260506091527 43 49 0.0 3.0 0.05 0.86 0.54 95 1009.6
20260506090025 44 22 1.0 5.0 0.06 0.85 0.53 95 1009.6
20260506084518 44 38 0.0 3.0 0.07 0.84 0.52 95 1009.4
20260506083044 44 11 0.0 3.0 0.07 0.82 0.50 95 1009.5
20260506081536 44 259 0.0 4.0 0.09 0.81 0.49 95 1009.7
20260506073050 44 13 1.0 3.0 0.11 0.74 0.43 95 1009.7
20260506071548 45 140 0.0 3.0 0.12 0.72 0.40 95 1009.9
20260506061532 46 46 1.0 4.0 0.15 0.61 0.28 94 1009.9
20260506044550 48 50 0.0 3.0 0.09 0.40 0.08 94 1010.2
20260506043034 48 101 0.0 1.0 0.11 0.38 0.05 94 1010.0
20260506041512 48 45 0.0 2.0 0.12 0.36 0.03 94 1010.0
20260506040101 48 183 0.0 1.0 0.10 0.33 0.00 94 1009.9
20260506034523 48 183 0.0 1.0 0.09 0.31 0.31 94 1009.9
20260506033007 48 183 0.0 1.0 0.04 0.26 0.27 94 1010.3
20260506031510 48 183 0.0 2.0 0.02 0.24 0.24 94 1010.4
20260506030032 48 188 0.0 0.0 0.01 0.23 0.23 94 1010.6
20260506024535 48 188 0.0 1.0 0.00 0.22 0.22 93 1010.6
20260506023025 48 188 0.0 2.0 0.01 0.22 0.22 93 1010.5
20260506021530 48 188 0.0 1.0 0.02 0.22 0.22 93 1010.6
20260506020010 48 140 0.0 2.0 0.04 0.22 0.22 93 1010.6